St Crescent Heliport

FR-0099 · Aude, Occitanie, Frankrijk

METAR historie FR-0099 · St Crescent Heliport

Hieronder zie je METAR's van de afgelopen dagen. Kies een jaar om door oudere METAR's te bladeren, vanaf het jaar 2007.

23 februari 2024

Tijd Code Weer Temp. Zicht Plafond Wind METAR/SPECI
03:00
V
10 °C 10 km+ - 280° 280° 7 kt METAR LFMU 230200Z AUTO 28007KT CAVOK 10/03 Q1005 NOSIG
02:30
V
10 °C 10 km+ - 270° 270° 7 kt METAR LFMU 230130Z AUTO 27007KT CAVOK 10/03 Q1005 NOSIG
02:00
V
10 °C 10 km+ - 290° 290° 15 kt METAR LFMU 230100Z AUTO 29015KT CAVOK 10/03 Q1005 NOSIG
01:30
V
10 °C 10 km+ - 290° 290° 16 kt METAR LFMU 230030Z AUTO 29016KT CAVOK 10/04 Q1005 NOSIG
01:00
V
11 °C 10 km+ - 280° 280° 18 kt METAR LFMU 230000Z AUTO 28018KT CAVOK 11/03 Q1005 NOSIG
00:30
V
11 °C 10 km+ - 290° 290° 15 kt METAR LFMU 222330Z AUTO 29015KT CAVOK 11/03 Q1005 NOSIG
00:00
V
11 °C 10 km+ - 290° 290° 19 kt METAR LFMU 222300Z AUTO 29019KT CAVOK 11/03 Q1005 NOSIG

22 februari 2024

Tijd Code Weer Temp. Zicht Plafond Wind METAR/SPECI
23:30
V
11 °C 10 km+ - 290° 290° 17 kt METAR LFMU 222230Z AUTO 29017KT CAVOK 11/03 Q1006 NOSIG
23:00
V
12 °C 10 km+ - 290° 290° 15 kt METAR LFMU 222200Z AUTO 29015KT CAVOK 12/03 Q1006 TEMPO 30020G35KT RA FEW040CB SCT050 BKN100
22:30
V
12 °C 10 km+ 10.000 ft 290° 290° 13 kt METAR LFMU 222130Z AUTO 29013KT 260V320 9999 FEW049 OVC100 12/03 Q1006 TEMPO 30020G35KT RA FEW040CB SCT050 BKN100
22:00
V
13 °C 10 km+ - 310° 310° 19 kt METAR LFMU 222100Z AUTO 31019KT CAVOK 13/04 Q1006 TEMPO 30020G35KT RA FEW040CB SCT050 BKN100
21:30
V
12 °C 10 km+ - 280° 280° 14 kt METAR LFMU 222030Z AUTO 28014KT CAVOK 12/05 Q1005 TEMPO 30020G35KT RA FEW040CB SCT050 BKN100
21:00
V
13 °C 10 km+ - 280° 280° 11 kt METAR LFMU 222000Z AUTO 28011KT 240V320 CAVOK 13/06 Q1005 TEMPO 30020G35KT RA FEW040CB SCT050 BKN100
20:30
V
13 °C 10 km+ - 300° 300° 19 kt METAR LFMU 221930Z AUTO 30019KT CAVOK 13/06 Q1004 TEMPO 30020G35KT RA FEW040CB SCT050 BKN100
20:00
V
14 °C 10 km+ 6.200 ft 310° 310° 24 - 35 kt METAR LFMU 221900Z AUTO 31024G35KT 9999 FEW025 SCT043 OVC062 14/06 Q1005 TEMPO RA FEW040CB SCT050 BKN100
19:30
V
13 °C 10 km+ 5.400 ft 300° 300° 11 kt METAR LFMU 221830Z AUTO 30011KT 260V010 9999 FEW015 SCT028 BKN054 13/11 Q1004 TEMPO 30020G35KT RA FEW040CB SCT050 BKN100
19:00
V
13 °C 10 km+ - 010° 010° 9 kt METAR LFMU 221800Z AUTO 01009KT CAVOK 13/11 Q1002 TEMPO 30020G35KT RA FEW040CB SCT050 BKN100
18:30
V
14 °C 10 km+ - 030° 030° 9 kt METAR LFMU 221730Z AUTO 03009KT CAVOK 14/11 Q1002 TEMPO 30020G35KT RA FEW040CB SCT050 BKN100
18:00
V
14 °C 10 km+ 13.000 ft 010° 010° 10 kt METAR LFMU 221700Z AUTO 01010KT 9999 FEW013 BKN130 14/11 Q1002 BECMG 30010KT
17:30
V
14 °C 10 km+ 13.000 ft 020° 020° 10 kt METAR LFMU 221630Z AUTO 02010KT 9999 SCT012 SCT022 BKN130 14/12 Q1002 BECMG 30010KT
17:00
M
14 °C 9 km 1.200 ft 040° 040° 9 kt METAR LFMU 221600Z AUTO 04009KT 9000 BKN012 BKN021 BKN130 14/12 Q1002 BECMG 30010KT FEW025 BKN100
16:30
M
14 °C 8 km 1.000 ft 070° 070° 9 kt METAR LFMU 221530Z AUTO 07009KT 030V090 8000 BKN010 OVC019 14/12 Q1002 BECMG 30010KT FEW025 BKN100
16:00
M
14 °C 10 km+ 1.000 ft 100° 100° 10 kt METAR LFMU 221500Z AUTO 10010KT 9999 BKN010 BKN017 OVC022 14/12 Q1002 NOSIG
15:30
M
14 °C 10 km+ 1.200 ft 100° 100° 10 kt METAR LFMU 221430Z AUTO 10010KT 9999 OVC012 14/12 Q1002 TEMPO BKN008
15:00
M
14 °C 10 km+ 1.200 ft 110° 110° 8 kt METAR LFMU 221400Z AUTO 11008KT 9999 BKN012 14/11 Q1003 TEMPO BKN008
14:30
V
14 °C 10 km+ 19.000 ft 100° 100° 10 kt METAR LFMU 221330Z AUTO 10010KT 9999 SCT014 BKN190 14/11 Q1004 TEMPO BKN008
14:00
M
14 °C 10 km+ 1.200 ft 110° 110° 9 kt METAR LFMU 221300Z AUTO 11009KT 9999 BKN012 BKN018 14/11 Q1005 TEMPO BKN008
13:30
M
14 °C 10 km+ 1.300 ft 120° 120° 8 kt METAR LFMU 221230Z AUTO 12008KT 9999 BKN013 OVC020 14/11 Q1006 NOSIG
13:00
M
14 °C 10 km+ 1.700 ft 100° 100° 7 kt METAR LFMU 221200Z AUTO 10007KT 9999 OVC017 14/11 Q1007 BECMG BKN012 BKN020
12:30
M
15 °C 10 km+ 1.500 ft 080° 080° 8 kt METAR LFMU 221130Z AUTO 08008KT 050V130 9999 OVC015 15/11 Q1008 NOSIG
12:00
M
14 °C 10 km+ 1.200 ft 070° 070° 10 kt METAR LFMU 221100Z AUTO 07010KT 9999 BKN012 OVC019 14/11 Q1009 BECMG NSC
11:30
I
14 °C 10 km+ 900 ft 080° 080° 11 kt METAR LFMU 221030Z AUTO 08011KT 050V110 9999 BKN009 OVC016 14/12 Q1009 BECMG NSC
11:00
M
13 °C 10 km+ 1.000 ft 060° 060° 12 kt METAR LFMU 221000Z AUTO 06012KT 9999 BKN010 OVC015 13/11 Q1010 BECMG NSC
10:30
M
13 °C 10 km+ 1.600 ft 040° 040° 10 kt METAR LFMU 220930Z AUTO 04010KT 9999 BKN016 BKN130 13/11 Q1010 NOSIG
10:00
V
12 °C 10 km+ 18.000 ft 030° 030° 10 kt METAR LFMU 220900Z AUTO 03010KT 9999 FEW016 BKN180 12/10 Q1011 BECMG 09010KT
09:30
V
11 °C 10 km+ 12.000 ft 020° 020° 8 kt METAR LFMU 220830Z AUTO 02008KT 9999 -RA SCT011/// SCT100/// BKN120/// ///TCU 11/10 Q1012 TEMPO 4000 BR BECMG 08010KT NSC
09:00
M
11 °C 10 km+ 1.100 ft 050° 050° 7 kt METAR LFMU 220800Z AUTO 05007KT 9999 OVC011/// //////TCU 11/09 Q1012 TEMPO 4000 BR BKN004 FEW060TCU OVC090
08:30
I
11 °C 10 km+ 900 ft 030° 030° 6 kt METAR LFMU 220730Z AUTO 03006KT 9999 BKN009 OVC100 11/09 Q1013 TEMPO 4000 BR BKN004 FEW060TCU OVC090
08:00
I
10 °C 10 km+ 800 ft 360° 360° 7 kt METAR LFMU 220700Z AUTO 36007KT 9999 OVC008 10/09 Q1013 TEMPO 4000 BR BKN004 FEW060TCU OVC090
07:30
I
10 °C 10 km+ 800 ft 360° 360° 4 kt METAR LFMU 220630Z AUTO 36004KT 9999 OVC008 10/09 Q1013 TEMPO 4000 BR BKN004 FEW060TCU OVC090
07:00
I
10 °C 10 km+ 700 ft 010° 010° 4 kt METAR LFMU 220600Z AUTO 01004KT 320V040 9999 OVC007 10/09 Q1013 TEMPO 4000 BR BKN004 FEW060TCU OVC090
06:30
I
10 °C 10 km+ 700 ft 050° 050° 4 kt METAR LFMU 220530Z AUTO 05004KT 9999 OVC007 10/09 Q1013 TEMPO 4000 BR BKN004 FEW060TCU OVC090
06:00
V
10 °C 10 km+ 10.000 ft 060° 060° 5 kt METAR LFMU 220500Z AUTO 06005KT 9999 FEW009 SCT013 BKN100 10/08 Q1014 TEMPO 4000 BR BKN004 FEW060TCU OVC090
05:30
V
10 °C 10 km+ 9.800 ft 020° 020° 5 kt METAR LFMU 220430Z AUTO 02005KT 9999 FEW010 OVC098 10/08 Q1015 TEMPO 4000 BR BKN004 FEW060TCU OVC090
05:00
M
10 °C 10 km+ 1.000 ft 040° 040° 7 kt METAR LFMU 220400Z AUTO 04007KT 9999 OVC010 10/08 Q1015 TEMPO 4000 BR BKN004 FEW060TCU OVC090
04:30
I
10 °C 10 km+ 800 ft 020° 020° 6 kt METAR LFMU 220330Z AUTO 02006KT 9999 BKN008 OVC150 10/08 Q1016 TEMPO 4000 BR BKN004 FEW060TCU OVC090
04:00
V
9 °C 10 km+ 13.000 ft 020° 020° 5 kt METAR LFMU 220300Z AUTO 02005KT 9999 FEW009 SCT100 BKN130 09/08 Q1016 TEMPO 4000 BR BKN004 FEW060TCU OVC090
03:30
V
9 °C 10 km+ - 360° 360° 7 kt METAR LFMU 220230Z AUTO 36007KT CAVOK 09/07 Q1016 TEMPO 4000 BR BKN004 FEW060TCU OVC090
03:00
V
9 °C 10 km+ - 010° 010° 5 kt METAR LFMU 220200Z AUTO 01005KT CAVOK 09/07 Q1017
02:30
V
9 °C 10 km+ - 040° 040° 5 kt METAR LFMU 220130Z AUTO 04005KT CAVOK 09/07 Q1017
02:00
V
9 °C 10 km+ - 070° 070° 5 kt METAR LFMU 220100Z AUTO 07005KT 030V090 CAVOK 09/07 Q1018
00:30
V
10 °C 10 km+ - 360° 360° 0 kt METAR LFMU 212330Z AUTO 00000KT 9999 -RA //////CB 10/07 Q1019
00:00
V
10 °C 10 km+ - 330° 330° 2 kt METAR LFMU 212300Z AUTO 33002KT 9999 //////CB 10/07 Q1019

21 februari 2024

Tijd Code Weer Temp. Zicht Plafond Wind METAR/SPECI
23:30
V
10 °C 10 km+ - Var Var 2 kt METAR LFMU 212230Z AUTO VRB02KT 9999 -RA ///CB 10/06 Q1019
23:00
V
10 °C 10 km+ - 040° 040° 2 kt METAR LFMU 212200Z AUTO 04002KT CAVOK 10/06 Q1020
22:30
V
10 °C 10 km+ - 360° 360° 0 kt METAR LFMU 212130Z AUTO 00000KT CAVOK 10/06 Q1020
22:00
V
10 °C 10 km+ - Var Var 2 kt METAR LFMU 212100Z AUTO VRB02KT CAVOK 10/06 Q1020
21:30
V
9 °C 10 km+ - 360° 360° 2 kt METAR LFMU 212030Z AUTO 36002KT CAVOK 09/06 Q1020
21:00
V
9 °C 10 km+ - 010° 010° 2 kt METAR LFMU 212000Z AUTO 01002KT CAVOK 09/06 Q1020
20:30
V
9 °C 10 km+ - Var Var 3 kt METAR LFMU 211930Z AUTO VRB03KT CAVOK 09/06 Q1021 TEMPO SHRA SCT050 FEW060TCU OVC100
20:00
V
10 °C 10 km+ - Var Var 2 kt METAR LFMU 211900Z AUTO VRB02KT CAVOK 10/06 Q1021 TEMPO SHRA SCT050 FEW060TCU OVC100
19:30
V
10 °C 10 km+ - 080° 080° 2 kt METAR LFMU 211830Z AUTO 08002KT CAVOK 10/06 Q1021 TEMPO SHRA SCT050 FEW060TCU OVC100
19:00
V
11 °C 10 km+ - 360° 360° 0 kt METAR LFMU 211800Z AUTO 00000KT CAVOK 11/06 Q1021 TEMPO SHRA SCT050 FEW060TCU OVC100
18:30
V
12 °C 10 km+ - 130° 130° 2 kt METAR LFMU 211730Z AUTO 13002KT CAVOK 12/06 Q1021 TEMPO SHRA SCT050 FEW060TCU OVC100
18:00
V
13 °C 10 km+ - 180° 180° 3 kt METAR LFMU 211700Z AUTO 18003KT 140V230 CAVOK 13/06 Q1021 NOSIG
17:30
V
13 °C 10 km+ - 180° 180° 5 kt METAR LFMU 211630Z AUTO 18005KT CAVOK 13/05 Q1021 NOSIG
17:00
V
14 °C 10 km+ - 190° 190° 6 kt METAR LFMU 211600Z AUTO 19006KT 160V220 CAVOK 14/05 Q1021 NOSIG
16:30
V
14 °C 10 km+ - 180° 180° 8 kt METAR LFMU 211530Z AUTO 18008KT 150V210 CAVOK 14/06 Q1021 NOSIG
16:00
V
14 °C 10 km+ - 190° 190° 8 kt METAR LFMU 211500Z AUTO 19008KT 170V230 CAVOK 14/06 Q1022 NOSIG
15:30
V
15 °C 10 km+ - 190° 190° 7 kt METAR LFMU 211430Z AUTO 19007KT 150V210 CAVOK 15/05 Q1022 NOSIG
15:00
V
15 °C 10 km+ - 180° 180° 7 kt METAR LFMU 211400Z AUTO 18007KT 140V210 CAVOK 15/04 Q1022 NOSIG
14:30
V
15 °C 10 km+ - 190° 190° 7 kt METAR LFMU 211330Z AUTO 19007KT 160V220 CAVOK 15/04 Q1023 NOSIG
14:00
V
15 °C 10 km+ - 180° 180° 7 kt METAR LFMU 211300Z AUTO 18007KT 150V210 CAVOK 15/03 Q1023 NOSIG
13:30
V
17 °C 10 km+ - 150° 150° 4 kt METAR LFMU 211230Z AUTO 15004KT 090V230 CAVOK 17/02 Q1024 NOSIG
13:00
V
16 °C 10 km+ - 090° 090° 3 kt METAR LFMU 211200Z AUTO 09003KT 050V130 CAVOK 16/02 Q1024 NOSIG
12:30
V
15 °C 10 km+ - 090° 090° 3 kt METAR LFMU 211130Z AUTO 09003KT 040V120 9999 ////// 15/02 Q1025
12:00
V
15 °C 10 km+ - Var Var 3 kt METAR LFMU 211100Z AUTO VRB03KT CAVOK 15/03 Q1025 NOSIG
11:30
V
14 °C 10 km+ - Var Var 2 kt METAR LFMU 211030Z AUTO VRB02KT CAVOK 14/04 Q1025 NOSIG
11:00
V
13 °C 10 km+ - Var Var 2 kt METAR LFMU 211000Z AUTO VRB02KT CAVOK 13/04 Q1025 NOSIG
10:30
V
12 °C 10 km+ - Var Var 3 kt METAR LFMU 210930Z AUTO VRB03KT CAVOK 12/05 Q1026 NOSIG
10:00
V
10 °C 10 km+ - Var Var 3 kt METAR LFMU 210900Z AUTO VRB03KT CAVOK 10/04 Q1026 NOSIG
09:30
V
8 °C 10 km+ - Var Var 3 kt METAR LFMU 210830Z AUTO VRB03KT CAVOK 08/05 Q1026 NOSIG
09:00
V
6 °C 10 km+ - 310° 310° 2 kt METAR LFMU 210800Z AUTO 31002KT CAVOK 06/04 Q1026 NOSIG
08:30
V
4 °C 10 km+ - 340° 340° 3 kt METAR LFMU 210730Z AUTO 34003KT CAVOK 04/03 Q1026 NOSIG
08:00
V
4 °C 10 km+ - Var Var 1 kt METAR LFMU 210700Z AUTO VRB01KT CAVOK 04/02 Q1026 NOSIG
07:30
V
4 °C 10 km+ - 310° 310° 3 kt METAR LFMU 210630Z AUTO 31003KT CAVOK 04/03 Q1025 NOSIG
07:00
V
3 °C 10 km+ - 270° 270° 4 kt METAR LFMU 210600Z AUTO 27004KT CAVOK 03/01 Q1025 NOSIG
06:30
V
3 °C 10 km+ - Var Var 2 kt METAR LFMU 210530Z AUTO VRB02KT CAVOK 03/02 Q1025 NOSIG
06:00
V
3 °C 10 km+ - 350° 350° 3 kt METAR LFMU 210500Z AUTO 35003KT 300V050 CAVOK 03/02 Q1026 NOSIG
05:30
V
3 °C 10 km+ - 280° 280° 4 kt METAR LFMU 210430Z AUTO 28004KT CAVOK 03/01 Q1026 NOSIG
05:00
V
3 °C 10 km+ - 320° 320° 3 kt METAR LFMU 210400Z AUTO 32003KT CAVOK 03/02 Q1025 NOSIG
04:30
V
4 °C 10 km+ - 360° 360° 4 kt METAR LFMU 210330Z AUTO 36004KT CAVOK 04/03 Q1025 NOSIG
04:00
V
4 °C 10 km+ - 070° 070° 2 kt METAR LFMU 210300Z AUTO 07002KT CAVOK 04/01 Q1026 NOSIG
03:30
V
5 °C 10 km+ - 360° 360° 0 kt METAR LFMU 210230Z AUTO 00000KT CAVOK 05/03 Q1026
03:00
V
5 °C 10 km+ - 300° 300° 3 kt METAR LFMU 210200Z AUTO 30003KT CAVOK 05/02 Q1026
02:30
V
5 °C 10 km+ - Var Var 3 kt METAR LFMU 210130Z AUTO VRB03KT CAVOK 05/03 Q1026
02:00
V
6 °C 10 km+ - 280° 280° 3 kt METAR LFMU 210100Z AUTO 28003KT CAVOK 06/03 Q1026
01:30
V
7 °C 10 km+ - 280° 280° 8 kt METAR LFMU 210030Z AUTO 28008KT 260V320 CAVOK 07/04 Q1027
01:00
V
8 °C 10 km+ - 220° 220° 3 kt METAR LFMU 210000Z AUTO 22003KT CAVOK 08/04 Q1027
00:30
V
6 °C 10 km+ - Var Var 3 kt METAR LFMU 202330Z AUTO VRB03KT CAVOK 06/03 Q1027
00:00
V
7 °C 10 km+ - 280° 280° 3 kt METAR LFMU 202300Z AUTO 28003KT CAVOK 07/03 Q1027

20 februari 2024

Tijd Code Weer Temp. Zicht Plafond Wind METAR/SPECI
23:30
V
7 °C 10 km+ - 270° 270° 6 kt METAR LFMU 202230Z AUTO 27006KT CAVOK 07/04 Q1027
23:00
V
8 °C 10 km+ - 260° 260° 5 kt METAR LFMU 202200Z AUTO 26005KT CAVOK 08/03 Q1028
22:30
V
9 °C 10 km+ - 280° 280° 6 kt METAR LFMU 202130Z AUTO 28006KT 190V310 CAVOK 09/03 Q1028
22:00
V
9 °C 10 km+ - 320° 320° 4 kt METAR LFMU 202100Z AUTO 32004KT CAVOK 09/03 Q1028
21:30
V
9 °C 10 km+ - 280° 280° 4 kt METAR LFMU 202030Z AUTO 28004KT 230V310 CAVOK 09/03 Q1028
21:00
V
10 °C 10 km+ - 260° 260° 5 kt METAR LFMU 202000Z AUTO 26005KT CAVOK 10/03 Q1028
20:30
V
10 °C 10 km+ - 290° 290° 9 kt METAR LFMU 201930Z AUTO 29009KT CAVOK 10/02 Q1028 NOSIG
20:00
V
12 °C 10 km+ - 310° 310° 10 kt METAR LFMU 201900Z AUTO 31010KT CAVOK 12/03 Q1028 NOSIG
19:30
V
12 °C 10 km+ - 310° 310° 9 kt METAR LFMU 201830Z AUTO 31009KT CAVOK 12/03 Q1028 NOSIG
19:00
V
12 °C 10 km+ - 300° 300° 9 kt METAR LFMU 201800Z AUTO 30009KT CAVOK 12/03 Q1028 NOSIG
18:30
V
14 °C 10 km+ - 310° 310° 10 kt METAR LFMU 201730Z AUTO 31010KT CAVOK 14/03 Q1028 NOSIG
18:00
V
15 °C 10 km+ - 330° 330° 14 kt METAR LFMU 201700Z AUTO 33014KT CAVOK 15/03 Q1027 NOSIG
17:30
V
16 °C 10 km+ - 330° 330° 14 kt METAR LFMU 201630Z AUTO 33014KT CAVOK 16/03 Q1027 NOSIG
17:00
V
16 °C 10 km+ - 330° 330° 17 kt METAR LFMU 201600Z AUTO 33017KT CAVOK 16/02 Q1027 TEMPO 32015G25KT
16:30
V
16 °C 10 km+ - 330° 330° 12 kt METAR LFMU 201530Z AUTO 33012KT CAVOK 16/02 Q1027 TEMPO 32015G25KT
16:00
V
17 °C 10 km+ - 330° 330° 13 kt METAR LFMU 201500Z AUTO 33013KT CAVOK 17/02 Q1027 TEMPO 32015G25KT
15:30
V
17 °C 10 km+ - 330° 330° 10 kt METAR LFMU 201430Z AUTO 33010KT 300V360 CAVOK 17/02 Q1027 TEMPO 33015G25KT
15:00
V
17 °C 10 km+ - 320° 320° 13 kt METAR LFMU 201400Z AUTO 32013KT 290V350 CAVOK 17/03 Q1028 TEMPO 33015G25KT
14:30
V
17 °C 10 km+ - 340° 340° 17 kt METAR LFMU 201330Z AUTO 34017KT CAVOK 17/02 Q1028 TEMPO 33015G25KT
14:00
V
16 °C 10 km+ - 320° 320° 20 kt METAR LFMU 201300Z AUTO 32020KT CAVOK 16/03 Q1028 TEMPO 33015G25KT
13:30
V
16 °C 10 km+ - 330° 330° 20 kt METAR LFMU 201230Z AUTO 33020KT CAVOK 16/03 Q1028 TEMPO 33015G25KT
13:00
V
16 °C 10 km+ - 330° 330° 20 kt METAR LFMU 201200Z AUTO 33020KT CAVOK 16/02 Q1029 TEMPO 33015G25KT
12:30
V
15 °C 10 km+ - 330° 330° 17 kt METAR LFMU 201130Z AUTO 33017KT CAVOK 15/03 Q1029 TEMPO 33015G25KT
12:00
V
15 °C 10 km+ - 320° 320° 19 kt METAR LFMU 201100Z AUTO 32019KT CAVOK 15/03 Q1029 TEMPO 33015G25KT
11:30
V
14 °C 10 km+ - 320° 320° 22 kt METAR LFMU 201030Z AUTO 32022KT CAVOK 14/03 Q1029 TEMPO 33015G25KT
11:00
V
14 °C 10 km+ - 330° 330° 20 kt METAR LFMU 201000Z AUTO 33020KT CAVOK 14/04 Q1030 TEMPO 33015G25KT
10:30
V
14 °C 10 km+ - 320° 320° 19 kt METAR LFMU 200930Z AUTO 32019KT CAVOK 14/04 Q1030 TEMPO 33015G25KT
10:00
V
13 °C 10 km+ - 320° 320° 14 kt METAR LFMU 200900Z AUTO 32014KT CAVOK 13/04 Q1030 TEMPO 33015G25KT
09:30
V
12 °C 10 km+ - 300° 300° 14 kt METAR LFMU 200830Z AUTO 30014KT CAVOK 12/05 Q1030 BECMG 33015G25KT
09:00
V
10 °C 10 km+ - 300° 300° 14 kt METAR LFMU 200800Z AUTO 30014KT CAVOK 10/05 Q1030 BECMG 33015G25KT
08:30
V
10 °C 10 km+ - 300° 300° 12 kt METAR LFMU 200730Z AUTO 30012KT CAVOK 10/05 Q1030 BECMG 33015G25KT
08:00
V
10 °C 10 km+ - 290° 290° 13 kt METAR LFMU 200700Z AUTO 29013KT CAVOK 10/04 Q1030 BECMG 33015G25KT
07:30
V
10 °C 10 km+ - 250° 250° 7 kt METAR LFMU 200630Z AUTO 25007KT CAVOK 10/04 Q1030 BECMG 33015G25KT
07:00
V
10 °C 10 km+ - 300° 300° 9 kt METAR LFMU 200600Z AUTO 30009KT CAVOK 10/03 Q1030 BECMG 33015G25KT